Regional Weather Roundup
Issued by NWS

Home | Current Version | Previous Version | Text Only | Print | Product List | Glossary On
Versions: 1 2 3 4 5 6 7 8 9 10 11 12 13 14 15 16 17 18 19 20 21 22 23 24 25 26 27 28 29 30 31 32 33 34 35 36 37 38 39 40 41 42 43 44 45 46 47 48 49 50
000
ASUS43 KLSX 011707
RWRMO

WEATHER SUMMARY FOR MISSOURI
NATIONAL WEATHER SERVICE SPRINGFIELD MO
1200 PM CDT WED OCT 01 2014

NOTE: "FAIR" INDICATES FEW OR NO CLOUDS BELOW 12,000 FEET WITH NO
       SIGNIFICANT WEATHER AND/OR OBSTRUCTIONS TO VISIBILITY.
       CURRENT SKY AND/OR WEATHER CONDITIONS ARE NOT AVAILABLE FOR
       CHILLICOTHE AND FARMINGTON.

MOZ001>031-035>038-043-044-053-054-011800-
...NORTHERN AND WESTERN MISSOURI...

CITY           SKY/WX    TMP DP  RH WIND       PRES   REMARKS
KANSAS CTY INT PTSUNNY   69  67  93 S10       29.79S
KANSAS C DTWN  CLOUDY    72  67  84 E7        29.79S
LEE`S SUMMIT   PTSUNNY   72  66  81 S7        29.81S
ST JOSEPH      CLOUDY    70  66  87 SE8       29.78S
CHILLICOTHE      N/A     65  62  90 SE6       29.83F
KIRKSVILLE     LGT RAIN  63  62  97 CALM      29.88R VSB 3/4

$$
MOZ066>068-077>081-088>096-101>105-011800-
...SOUTHWEST MISSOURI...

CITY           SKY/WX    TMP DP  RH WIND       PRES   REMARKS
SPRINGFIELD    SUNNY     81  65  58 S20       29.84F
JOPLIN         SUNNY     83  68  60 S23G29    29.80F

$$
MOZ032>034-039>042-045>050-055>058-069>072-011800-
...CENTRAL MISSOURI...

CITY           SKY/WX    TMP DP  RH WIND       PRES   REMARKS
COLUMBIA       PTSUNNY   73  61  65 NE12      29.86F
JEFFERSON CITY PTSUNNY   83  60  45 S9        29.83F
ROLLA          PTSUNNY   84  60  44 S18G25    29.86S
SEDALIA        PTSUNNY   73  64  73 NE9       29.83S
WHITEMAN AFB   MOSUNNY   75  66  73 VRB3      29.81R
OSAGE BEACH    MOSUNNY   84  64  51 SW13G20   29.84F

$$
MOZ051-052-059>065-011800-
...EAST CENTRAL MISSOURI...

CITY           SKY/WX    TMP DP  RH WIND       PRES   REMARKS
ST LOUIS INTL  MOSUNNY   81  61  50 S12       29.90F
SPIRIT OF STL  PTSUNNY   81  62  52 SE10      29.88F
ST CHARLES     MOSUNNY   80  61  52 SE10      29.88F

$$
MOZ072>076-082>087-097>100-106>115-011800-
...SOUTH CENTRAL AND SOUTHEAST MISSOURI...

CITY           SKY/WX    TMP DP  RH WIND       PRES   REMARKS
CAPE GIRARDEAU SUNNY     82  63  52 S9        29.93S
FARMINGTON     MOSUNNY   82  63  51 S8G17     29.94S
POPLAR BLUFF   MOSUNNY   85  64  49 S13G18    29.90F
WEST PLAINS    SUNNY     82  64  54 S10       29.92S

$$


USA.gov is the U.S. government's official web portal to all federal, state and local government web resources and services.